This is the latest recevied weather packets stored in our database for station/object KF4ERV-4. If no packets are shown the sender has not sent any weather packets the latest 10 day(s).
| Time | Temp. | Humidity | Pressure | Rain* | Wind** | Luminosity | Snow |
|---|---|---|---|---|---|---|---|
| 1778099699 | 16.67° C | 60% | 1015 hPa | 0 mm | - | - | - |
| 1778099516 | 17.22° C | 58% | 1014.2 hPa | 0 mm | - | - | - |
| 1778099400 | 17.22° C | 58% | 1014.2 hPa | 0 mm | - | - | - |
| 1778099226 | 17.78° C | 58% | 1014 hPa | 0 mm | - | - | - |
| 1778099094 | 17.78° C | 58% | 1014 hPa | 0 mm | - | - | - |
| 1778098935 | 17.22° C | 61% | 1014 hPa | 0 mm | - | - | - |
| 1778098799 | 17.22° C | 61% | 1014 hPa | 0 mm | - | - | - |
| 1778098645 | 17.22° C | 64% | 1014 hPa | 0 mm | - | - | - |
| 1778098500 | 17.22° C | 64% | 1014 hPa | 0 mm | - | - | - |
| 1778098355 | 17.22° C | 63% | 1014.1 hPa | 0 mm | - | - | - |
| 1778098192 | 17.22° C | 63% | 1014.1 hPa | 0 mm | - | - | - |
| 1778098065 | 17.22° C | 65% | 1014 hPa | 0 mm | - | - | - |
| 1778097774 | 16.67° C | 66% | 1014.1 hPa | 0 mm | - | - | - |
| 1778097598 | 16.67° C | 66% | 1014.1 hPa | 0 mm | - | - | - |
| 1778097483 | 16.67° C | 67% | 1014.1 hPa | 0 mm | - | - | - |
| 1778097193 | 16.67° C | 66% | 1014.5 hPa | 0 mm | - | - | - |
| 1778096997 | 16.67° C | 66% | 1014.5 hPa | 0 mm | - | - | - |
| 1778096935 | 16.67° C | 66% | 1015 hPa | 0 mm | - | - | - |
| 1778096903 | 16.67° C | 66% | 1015 hPa | 0 mm | - | - | - |
| 1778096731 | 16.67° C | 66% | 1015 hPa | 0 mm | - | - | - |
| 1778096696 | 16.67° C | 66% | 1015 hPa | 0 mm | - | - | - |
| 1778096614 | 16.67° C | 67% | 1014.9 hPa | 0 mm | - | - | - |
| 1778096399 | 16.67° C | 67% | 1014.9 hPa | 0 mm | - | - | - |
| 1778096357 | 16.67° C | 66% | 1014.9 hPa | 0 mm | - | - | - |
| 1778096324 | 16.67° C | 66% | 1014.9 hPa | 0 mm | - | - | - |
* Rain latest hour (hover to see other rain measurements)
** Current wind speed in m/s (hover to see current wind gust speed)